{"data":{"norad_id":43874,"intl_designator":"2018-110A","name":"TJS-3","alt_names":[],"object_type":"PAYLOAD","status":"ACTIVE","operator":null,"country":"PRC","launch_date":"2018-12-24","launch_site_code":"XICLF","launch_vehicle":null,"mission":null,"orbit_class":"UNKNOWN","rcs_meters":null,"size_class":null,"mass_kg":null,"dimensions":null,"purposes":["comms"],"wikipedia_slug":null,"has_3d_model":false,"image_url":null,"decayed_at":null,"tle_current":{"epoch":"2026-09-19T18:38:32.211744Z","epoch_age_seconds":80730,"freshness":"FRESH","line1":"1 43874U 18110A   26262.77676171  .00000014  00000+0  00000+0 0  9990","line2":"2 43874   2.7812  79.2608 0004084 137.9620 231.8736  1.00453663 28372","mean_motion":1.00453663,"eccentricity":0.0004084,"inclination_deg":2.7812,"raan_deg":79.2608,"arg_perigee_deg":137.962,"mean_anomaly_deg":231.8736,"bstar":0,"rev_number":2837,"period_min":1433.4967556136,"perigee_km":35718.485615503,"apogee_km":35752.884185231,"semimajor_km":42113.821900367,"source":"CELESTRAK","updated_at":"2026-09-20T09:00:35.264784Z"}}}